Leadville, CO

11:17 AM MDT on April 26, 2017 (GMT -0600)
Lake County

Weather History for KLXV - January, 2013

Change the Weather History Date:

Sunday, January 27, 2013

  Actual Average Record
Temperature  
Mean Temperature 26 °F -  
Max Temperature 37 °F 30 °F 51 °F (2015)
Min Temperature 14 °F 4 °F -17 °F (2017)
Degree Days  
Heating Degree Days 39 48  
Month to date heating degree days 1343 1296  
Since 1 July heating degree days 5877 6197  
Cooling Degree Days 0 0  
Month to date cooling degree days 0 0  
Year to date cooling degree days 0 0  
Moisture  
Dew Point 19 °F    
Average Humidity 66    
Maximum Humidity 92    
Minimum Humidity 40    
Precipitation  
Precipitation T in 0.01 in 0.23 in (2012)
Month to date precipitation 0.27 0.53  
Year to date precipitation 0.27 0.53  
Sea Level Pressure  
Sea Level Pressure 29.71 in    
Wind  
Wind Speed 7 mph (North)    
Max Wind Speed 17 mph    
Max Gust Speed 23 mph    
Visibility 9 miles    
Events Snow    
T = Trace of Precipitation, MM = Missing Value Source: NWS Daily Summary

Daily Weather History Graph

Daily Weather History Graph

Search for Another Location

Airport or City:

Trip Planner

Search our weather history database for the weather conditions in past years. The results will help you decide how hot, cold, wet, or windy it might be!

Date:

Astronomy

Jan. 27, 2013 Rise Set
Actual Time 7:16 AM MST 5:20 PM MST
Civil Twilight 6:47 AM MST 5:49 PM MST
Nautical Twilight 6:15 AM MST 6:21 PM MST
Astronomical Twilight 5:43 AM MST 6:53 PM MST
Moon 6:16 PM MST (1/27) 7:11 AM MST (1/27)
Length of Visible Light 11h 01m
Length of Day
10h 04m
Full, 100% of the Moon is Illuminated
Jan 27
Full
Feb 3
Last Quarter
Feb 10
New
Feb 17
First Quarter
Feb 25
Full

Hourly Weather History & Observations

Time (MST) Temp. Windchill Dew Point Humidity Pressure Visibility Wind Dir Wind Speed Gust Speed Precip Events Conditions
12:02 AM 28.4 °F - 28.4 °F 100% 29.82 in 2.5 mi Calm Calm - 0.01 in Snow Light Snow
12:19 AM 28.4 °F - 26.6 °F 93% 29.82 in 3.0 mi Calm Calm - 0.01 in Snow Light Snow
12:28 AM 28.4 °F - 26.6 °F 93% 29.82 in 3.0 mi Calm Calm - 0.01 in Snow Light Snow
12:43 AM 28.4 °F - 26.6 °F 93% 29.82 in 4.0 mi Calm Calm - 0.01 in Snow Light Snow
12:53 AM 28.0 °F 24.2 °F 27.0 °F 96% 29.61 in 6.0 mi NNE 3.5 mph - 0.01 in   Overcast
1:13 AM 26.6 °F - 26.6 °F 100% 29.81 in 5.0 mi Calm Calm - 0.00 in Snow Light Snow
1:38 AM 26.6 °F 22.6 °F 26.6 °F 100% 29.81 in 10.0 mi North 3.5 mph - 0.00 in   Overcast
1:51 AM 26.6 °F 21.2 °F 24.8 °F 93% 29.81 in 10.0 mi NNW 4.6 mph - 0.00 in   Overcast
1:53 AM 26.1 °F 19.4 °F 25.0 °F 96% 29.61 in 10.0 mi North 5.8 mph - 0.00 in   Overcast
2:53 AM 26.1 °F 21.9 °F 24.1 °F 92% 29.63 in 10.0 mi North 3.5 mph - N/A   Scattered Clouds
3:53 AM 26.1 °F 19.4 °F 23.0 °F 88% 29.65 in 10.0 mi NE 5.8 mph - N/A   Partly Cloudy
4:53 AM 26.1 °F 18.4 °F 21.9 °F 84% 29.66 in 10.0 mi NNE 6.9 mph - N/A   Mostly Cloudy
5:53 AM 26.1 °F 20.5 °F 21.9 °F 84% 29.66 in 10.0 mi Variable 4.6 mph - N/A   Partly Cloudy
6:53 AM 25.0 °F 17.1 °F 21.0 °F 85% 29.70 in 10.0 mi NNW 6.9 mph - N/A   Scattered Clouds
7:53 AM 26.1 °F 17.6 °F 21.0 °F 81% 29.69 in 10.0 mi NNW 8.1 mph - N/A   Mostly Cloudy
8:53 AM 27.0 °F 17.3 °F 21.9 °F 81% 29.70 in 10.0 mi NNW 10.4 mph 17.3 mph N/A   Mostly Cloudy
9:53 AM 30.0 °F 19.5 °F 23.0 °F 75% 29.70 in 10.0 mi NNW 13.8 mph 19.6 mph N/A   Overcast
10:53 AM 33.1 °F 24.4 °F 23.0 °F 66% 29.69 in 10.0 mi North 11.5 mph - N/A   Mostly Cloudy
11:53 AM 36.0 °F 31.1 °F 21.9 °F 57% 29.65 in 10.0 mi NNE 5.8 mph - N/A   Mostly Cloudy
12:53 PM 34.0 °F 26.0 °F 16.0 °F 48% 29.65 in 10.0 mi SSW 10.4 mph - N/A   Mostly Cloudy
1:53 PM 35.1 °F 25.9 °F 14.0 °F 42% 29.64 in 10.0 mi SW 13.8 mph - N/A   Partly Cloudy
2:53 PM 35.1 °F 26.9 °F 14.0 °F 42% 29.65 in 10.0 mi SW 11.5 mph - N/A   Clear
3:53 PM 33.1 °F 23.4 °F 12.0 °F 42% 29.67 in 10.0 mi SW 13.8 mph 18.4 mph N/A   Clear
4:53 PM 28.9 °F 23.9 °F 12.0 °F 49% 29.70 in 10.0 mi South 4.6 mph - N/A   Clear
5:53 PM 26.1 °F 18.4 °F 10.9 °F 53% 29.73 in 10.0 mi South 6.9 mph - N/A   Clear
6:53 PM 26.1 °F - 9.0 °F 49% 29.74 in 10.0 mi Calm Calm - N/A   Clear
7:53 PM 24.1 °F 19.7 °F 10.0 °F 55% 29.74 in 10.0 mi South 3.5 mph - N/A   Clear
8:53 PM 21.9 °F 14.5 °F 10.0 °F 60% 29.72 in 10.0 mi South 5.8 mph - N/A   Clear
9:53 PM 25.0 °F 17.1 °F 10.9 °F 55% 29.68 in 10.0 mi South 6.9 mph - N/A   Clear
10:53 PM 21.9 °F 17.2 °F 12.0 °F 66% 29.67 in 10.0 mi SE 3.5 mph - N/A   Clear
11:53 PM 21.0 °F 13.4 °F 12.0 °F 68% 29.64 in 10.0 mi ESE 5.8 mph - N/A   Clear